| time (UTC) | temp F | wind direction | speed MPH | gust MPH | rain 1hr in | rain 24hr in | rain mn in | humidity % | barometer mb |
| 20260504045728 | 58 | 336 | 3.0 | 11.0 | 0.00 | 0.00 | 0.00 | 35 | 1007.1 |
| 20260504044747 | 59 | 332 | 1.0 | 9.0 | 0.00 | 0.00 | 0.00 | 34 | 1007.1 |
| 20260504043751 | 59 | 0 | 0.0 | 1.0 | 0.00 | 0.00 | 0.00 | 33 | 1007.2 |
| 20260504042814 | 60 | 343 | 3.0 | 1.0 | 0.00 | 0.00 | 0.00 | 33 | 1007.3 |
| 20260504041838 | 60 | 0 | 8.0 | 19.0 | 0.00 | 0.00 | 0.00 | 32 | 1007.6 |
| 20260504034521 | 60 | 267 | 3.0 | 16.0 | 0.00 | 0.00 | 0.00 | 29 | 1007.3 |
| 20260504033447 | 60 | 268 | 4.0 | 12.0 | 0.00 | 0.00 | 0.00 | 29 | 1007.0 |
| 20260504032511 | 58 | 234 | 0.0 | 11.0 | 0.00 | 0.00 | 0.00 | 29 | 1006.9 |
| 20260504031455 | 58 | 236 | 0.0 | 0.0 | 0.00 | 0.00 | 0.00 | 28 | 1006.7 |
| 20260504030422 | 59 | 236 | 0.0 | 0.0 | 0.00 | 0.00 | 0.00 | 28 | 1006.5 |
| 20260504025440 | 59 | 236 | 0.0 | 0.0 | 0.00 | 0.00 | 0.00 | 27 | 1006.3 |
| 20260504024648 | 59 | 236 | 0.0 | 0.0 | 0.00 | 0.00 | 0.00 | 27 | 1006.3 |
| 20260504022525 | 60 | 236 | 0.0 | 0.0 | 0.00 | 0.00 | 0.00 | 26 | 1006.1 |
| 20260504021503 | 61 | 236 | 0.0 | 0.0 | 0.00 | 0.00 | 0.00 | 25 | 1006.1 |
| 20260504020512 | 62 | 236 | 0.0 | 0.0 | 0.00 | 0.00 | 0.00 | 25 | 1006.1 |
| 20260504015440 | 62 | 236 | 0.0 | 0.0 | 0.00 | 0.00 | 0.00 | 24 | 1006.1 |
| 20260504013256 | 64 | 236 | 0.0 | 0.0 | 0.00 | 0.00 | 0.00 | 24 | 1006.1 |
| 20260504012242 | 64 | 239 | 0.0 | 0.0 | 0.00 | 0.00 | 0.00 | 23 | 1006.1 |
| 20260504011307 | 65 | 238 | 0.0 | 10.0 | 0.00 | 0.00 | 0.00 | 23 | 1006.1 |
| 20260504005134 | 66 | 241 | 0.0 | 11.0 | 0.00 | 0.00 | 0.00 | 22 | 1006.2 |
| 20260504004138 | 66 | 240 | 0.0 | 8.0 | 0.00 | 0.00 | 0.00 | 21 | 1006.4 |
| 20260504003156 | 67 | 261 | 4.0 | 8.0 | 0.00 | 0.00 | 0.00 | 20 | 1006.5 |
| 20260504002141 | 69 | 217 | 4.0 | 13.0 | 0.00 | 0.00 | 0.00 | 20 | 1006.4 |
| 20260504001154 | 69 | 237 | 0.0 | 6.0 | 0.00 | 0.00 | 0.00 | 19 | 1006.6 |
| 20260504000133 | 69 | 248 | 6.0 | 11.0 | 0.00 | 0.00 | 0.00 | 19 | 1006.7 |
| 20260503235117 | 70 | 0 | 6.0 | 17.0 | 0.00 | 0.00 | 0.00 | 19 | 1006.7 |
| 20260503234105 | 70 | 242 | 6.0 | 17.0 | 0.00 | 0.00 | 0.00 | 18 | 1006.8 |
| 20260503233102 | 69 | 221 | 4.0 | 15.0 | 0.00 | 0.00 | 0.00 | 18 | 1007.0 |
| 20260503232105 | 70 | 260 | 4.0 | 15.0 | 0.00 | 0.00 | 0.00 | 18 | 1007.1 |
| 20260503231045 | 70 | 250 | 4.0 | 1.0 | 0.00 | 0.00 | 0.00 | 18 | 1007.3 |
| 20260503230020 | 70 | 244 | 3.0 | 12.0 | 0.00 | 0.00 | 0.00 | 18 | 1007.4 |
| 20260503225036 | 69 | 0 | 1.0 | 11.0 | 0.00 | 0.00 | 0.00 | 18 | 1007.6 |
| 20260503224031 | 68 | 257 | 1.0 | 13.0 | 0.00 | 0.00 | 0.00 | 20 | 1007.9 |
| 20260503223030 | 67 | 0 | 0.0 | 5.0 | 0.00 | 0.00 | 0.00 | 20 | 1008.0 |
| 20260503222044 | 67 | 0 | 0.0 | 7.0 | 0.00 | 0.00 | 0.00 | 19 | 1008.3 |
| 20260503221022 | 69 | 268 | 3.0 | 13.0 | 0.00 | 0.00 | 0.00 | 19 | 1008.4 |
| 20260503220000 | 68 | 0 | 1.0 | 3.0 | 0.00 | 0.00 | 0.00 | 19 | 1008.6 |
| 20260503214943 | 67 | 272 | 0.0 | 1.0 | 0.00 | 0.00 | 0.00 | 19 | 1008.8 |
| 20260503213930 | 67 | 0 | 0.0 | 0.0 | 0.00 | 0.00 | 0.00 | 19 | 1009.0 |
| 20260503212904 | 67 | 0 | 0.0 | 0.0 | 0.00 | 0.00 | 0.00 | 21 | 1009.2 |
| 20260503211911 | 66 | 0 | 0.0 | 0.0 | 0.00 | 0.00 | 0.00 | 21 | 1009.3 |
| 20260503210850 | 67 | 0 | 0.0 | 0.0 | 0.00 | 0.00 | 0.00 | 20 | 1009.6 |
| 20260503205914 | 69 | 0 | 3.0 | 12.0 | 0.00 | 0.00 | 0.00 | 20 | 1009.7 |
| 20260503204858 | 67 | 0 | 0.0 | 1.0 | 0.00 | 0.00 | 0.00 | 21 | 1010.0 |
| 20260503203825 | 67 | 272 | 0.0 | 0.0 | 0.00 | 0.00 | 0.00 | 21 | 1010.2 |
| 20260503202831 | 66 | 0 | 3.0 | 12.0 | 0.00 | 0.00 | 0.00 | 21 | 1010.4 |
| 20260503201838 | 66 | 229 | 0.0 | 6.0 | 0.00 | 0.00 | 0.00 | 22 | 1010.6 |
| 20260503200849 | 65 | 333 | 0.0 | 1.0 | 0.00 | 0.00 | 0.00 | 22 | 1010.7 |
| 20260503195910 | 65 | 274 | 0.0 | 0.0 | 0.00 | 0.00 | 0.00 | 21 | 1010.9 |
| 20260503192606 | 67 | 200 | 0.0 | 5.0 | 0.00 | 0.00 | 0.00 | 20 | 1011.3 |
| 20260503191605 | 68 | 191 | 1.0 | 0.0 | 0.00 | 0.00 | 0.00 | 20 | 1011.5 |
| 20260503190554 | 67 | 186 | 3.0 | 3.0 | 0.00 | 0.00 | 0.00 | 23 | 1011.7 |
| 20260503185524 | 65 | 205 | 3.0 | 11.0 | 0.00 | 0.00 | 0.00 | 23 | 1012.1 |
| 20260503184505 | 65 | 157 | 0.0 | 5.0 | 0.00 | 0.00 | 0.00 | 23 | 1012.3 |
| 20260503183519 | 65 | 124 | 0.0 | 4.0 | 0.00 | 0.00 | 0.00 | 24 | 1012.4 |
| 20260503182515 | 64 | 138 | 1.0 | 9.0 | 0.00 | 0.00 | 0.00 | 25 | 1012.8 |
| 20260503181505 | 67 | 153 | 1.0 | 11.0 | 0.00 | 0.00 | 0.00 | 24 | 1013.0 |
| 20260503180445 | 67 | 145 | 3.0 | 10.0 | 0.00 | 0.00 | 0.00 | 23 | 1013.2 |
| 20260503174237 | 64 | 192 | 1.0 | 14.0 | 0.00 | 0.00 | 0.00 | 26 | 1013.5 |
| 20260503173228 | 64 | 173 | 4.0 | 0.0 | 0.00 | 0.00 | 0.00 | 25 | 1013.8 |
| 20260503172207 | 64 | 179 | 3.0 | 16.0 | 0.00 | 0.00 | 0.00 | 25 | 1014.0 |
| 20260503171151 | 64 | 165 | 1.0 | 0.0 | 0.00 | 0.00 | 0.00 | 26 | 1014.0 |
| 20260503170137 | 64 | 156 | 4.0 | 13.0 | 0.00 | 0.00 | 0.00 | 28 | 1014.1 |
| 20260503150939 | 57 | 96 | 3.0 | 17.0 | 0.00 | 0.00 | 0.00 | 34 | 1015.2 |
| 20260503130625 | 42 | 34 | 9.0 | 15.0 | 0.00 | 0.00 | 0.00 | 44 | 1015.3 |
| 20260503110330 | 38 | 121 | 0.0 | 0.0 | 0.00 | 0.00 | 0.00 | 46 | 1015.2 |
| 20260503100241 | 38 | 121 | 0.0 | 0.0 | 0.00 | 0.00 | 0.00 | 45 | 1015.4 |
| 20260503090146 | 38 | 140 | 0.0 | 7.0 | 0.00 | 0.00 | 0.00 | 44 | 1015.3 |
| 20260503080932 | 40 | 155 | 0.0 | 15.0 | 0.00 | 0.00 | 0.00 | 40 | 1015.3 |